Volk, WI

8:27 PM CDT on July 23, 2017 (GMT -0500)
Volk

Weather History for KVOK - August, 2013

Change the Weather History Date:

Sunday, August 18, 2013

  Actual Average Record
Temperature  
Mean Temperature 64 °F -  
Max Temperature 81 °F 75 °F 91 °F (2003)
Min Temperature 48 °F 60 °F 37 °F (2012)
Degree Days  
Heating Degree Days 1    
Growing Degree Days 14 (Base 50)    
Moisture  
Dew Point 54 °F    
Average Humidity 86    
Maximum Humidity 100    
Minimum Humidity 42    
Precipitation  
Precipitation 0.00 in - - ()
Sea Level Pressure  
Sea Level Pressure 30.17 in    
Wind  
Wind Speed 3 mph (SE)    
Max Wind Speed 10 mph    
Max Gust Speed -    
Visibility 8 miles    
Events Fog , Rain    
Averages and records for this station are not official NWS values.
T = Trace of Precipitation, MM = Missing Value Source: NWS Daily Summary

Daily Weather History Graph

Daily Weather History Graph

Search for Another Location

Airport or City:

Trip Planner

Search our weather history database for the weather conditions in past years. The results will help you decide how hot, cold, wet, or windy it might be!

Date:

Astronomy

Aug. 18, 2013 Rise Set
Actual Time 6:08 AM CDT 8:00 PM CDT
Civil Twilight 5:37 AM CDT 8:30 PM CDT
Nautical Twilight 5:00 AM CDT 9:08 PM CDT
Astronomical Twilight 4:18 AM CDT 9:49 PM CDT
Moon 6:08 PM CDT (8/18) 3:15 AM CDT (8/18)
Length of Visible Light 14h 53m
Length of Day
13h 51m
Waxing Gibbous, 92% of the Moon is Illuminated
Aug 18
Waxing Gibbous
Aug 20
Full
Aug 28
Last Quarter
Sep 5
New
Sep 12
First Quarter

Hourly Weather History & Observations

Time (CDT) Temp. Heat Index Dew Point Humidity Pressure Visibility Wind Dir Wind Speed Gust Speed Precip Events Conditions
12:08 AM 53.6 °F - 53.6 °F 100% 30.17 in 5.0 mi East 2.3 mph - N/A   Clear
12:13 AM 53.6 °F - 53.6 °F 100% 30.17 in 4.0 mi Calm Calm - N/A   Clear
12:18 AM 53.6 °F - 53.6 °F 100% 30.17 in 7.0 mi Calm Calm - N/A   Clear
12:23 AM 55.4 °F - 55.4 °F 100% 30.17 in 10.0 mi Calm Calm - N/A   Clear
12:58 AM 54.3 °F - 54.1 °F 99% 30.17 in 10.0 mi East 1.2 mph - N/A   Clear
1:58 AM 53.4 °F - 53.2 °F 99% 30.17 in 10.0 mi East 3.5 mph - N/A   Clear
2:23 AM 51.8 °F - 51.8 °F 100% 30.17 in 9.0 mi East 4.6 mph - N/A   Clear
2:33 AM 51.8 °F - 51.8 °F 100% 30.17 in 9.0 mi East 4.6 mph - N/A   Clear
2:58 AM 52.0 °F - 52.0 °F 100% 30.18 in 10.0 mi East 3.5 mph - N/A   Clear
3:13 AM 51.8 °F - 51.8 °F 100% 30.17 in 6.0 mi North 2.3 mph - N/A   Clear
3:28 AM 51.8 °F - 51.8 °F 100% 30.17 in 3.0 mi ESE 3.5 mph - N/A   Clear
3:38 AM 50.0 °F - 50.0 °F 100% 30.17 in 6.0 mi East 4.6 mph - N/A   Clear
3:43 AM 50.0 °F - 50.0 °F 100% 30.17 in 8.0 mi ESE 3.5 mph - N/A   Clear
3:48 AM 48.2 °F - 48.2 °F 100% 30.18 in 4.0 mi ESE 4.6 mph - N/A   Clear
3:58 AM 49.6 °F - 49.6 °F 100% 30.19 in 5.0 mi ESE 3.5 mph - N/A   Clear
4:08 AM 50.0 °F - 50.0 °F 100% 30.18 in 10.0 mi SE 4.6 mph - N/A   Clear
4:58 AM 53.4 °F - 53.4 °F 100% 30.19 in 10.0 mi East 1.2 mph - N/A   Clear
5:48 AM 50.0 °F - 50.0 °F 100% 30.20 in 9.0 mi SE 2.3 mph - N/A   Clear
5:53 AM 48.2 °F - 48.2 °F 100% 30.20 in 9.0 mi ESE 2.3 mph - N/A   Clear
5:58 AM 48.9 °F - 48.9 °F 100% 30.21 in 9.0 mi East 2.3 mph - N/A   Clear
6:03 AM 48.2 °F - 48.2 °F 100% 30.20 in 2.0 mi East 2.3 mph - N/A   Clear
6:08 AM 48.2 °F - 48.2 °F 100% 30.20 in 1.2 mi East 2.3 mph - N/A   Clear
6:13 AM 48.2 °F - 48.2 °F 100% 30.21 in 1.5 mi East 2.3 mph - N/A   Clear
6:18 AM 48.2 °F - 48.2 °F 100% 30.21 in 1.8 mi East 2.3 mph - N/A   Clear
6:23 AM 50.0 °F - 50.0 °F 100% 30.21 in 0.5 mi East 2.3 mph - N/A Fog Fog
6:28 AM 50.0 °F - 50.0 °F 100% 30.21 in 0.5 mi ESE 3.5 mph - N/A Fog Fog
6:33 AM 50.0 °F - 50.0 °F 100% 30.21 in 6.0 mi ESE 3.5 mph - N/A   Clear
6:58 AM 50.2 °F - 50.2 °F 100% 30.22 in 10.0 mi East 2.3 mph - N/A   Clear
7:58 AM 59.0 °F - 57.0 °F 93% 30.22 in 10.0 mi ESE 3.5 mph - N/A   Clear
8:58 AM 68.0 °F - 59.0 °F 73% 30.22 in 10.0 mi South 5.8 mph - N/A   Scattered Clouds
9:58 AM 73.4 °F - 59.0 °F 61% 30.22 in 10.0 mi Calm Calm - N/A   Scattered Clouds
10:58 AM 77.0 °F - 59.0 °F 54% 30.21 in 10.0 mi South 4.6 mph - N/A   Scattered Clouds
11:58 AM 78.8 °F - 57.2 °F 47% 30.19 in 10.0 mi SSE 3.5 mph - N/A   Scattered Clouds
12:15 PM 78.8 °F - 59.0 °F 51% 30.18 in 10.0 mi South 9.2 mph - N/A   Light Drizzle
12:24 PM 78.8 °F - 55.4 °F 44% 30.18 in 10.0 mi Variable 5.8 mph - N/A   Partly Cloudy
12:58 PM 78.8 °F - 57.2 °F 47% 30.18 in 10.0 mi Calm Calm - N/A   Scattered Clouds
1:58 PM 78.8 °F - 57.2 °F 47% 30.16 in 10.0 mi Variable 4.6 mph - N/A   Scattered Clouds
2:58 PM 80.6 °F 80.8 °F 57.2 °F 45% 30.14 in 10.0 mi SW 10.4 mph - N/A   Scattered Clouds
3:58 PM 80.6 °F 80.8 °F 57.2 °F 45% 30.13 in 10.0 mi SSW 6.9 mph - N/A   Scattered Clouds
4:58 PM 80.6 °F 80.5 °F 55.4 °F 42% 30.12 in 10.0 mi SSW 8.1 mph - N/A   Scattered Clouds
5:58 PM 78.4 °F - 57.0 °F 48% 30.12 in 10.0 mi SW 6.9 mph - N/A   Partly Cloudy
6:58 PM 76.6 °F - 58.6 °F 54% 30.10 in 10.0 mi SW 5.8 mph - N/A   Partly Cloudy
7:58 PM 72.1 °F - 58.8 °F 63% 30.09 in 10.0 mi SSW 3.5 mph - N/A   Clear
8:58 PM 61.2 °F - 58.3 °F 90% 30.11 in 10.0 mi WNW 5.8 mph - N/A   Clear
9:22 PM 59.0 °F - 59.0 °F 100% 30.10 in 10.0 mi Calm Calm - N/A Rain Light Rain
9:27 PM 59.0 °F - 57.2 °F 94% 30.10 in 10.0 mi Calm Calm - N/A   Clear
9:58 PM 58.1 °F - 58.1 °F 100% 30.11 in 10.0 mi Calm Calm - 0.00 in   Clear
10:58 PM 55.9 °F - 55.9 °F 100% 30.09 in 10.0 mi SE 1.2 mph - N/A   Clear
11:58 PM 55.8 °F - 55.8 °F 100% 30.09 in 10.0 mi Calm Calm - N/A   Clear